Volver al catálogo

STARLINK-30854

ActivoComunicacionesVLEO
NORAD 58244·PAYLOAD·🇺🇸 United States

Lanzado Nov 8, 2023 desde Cape Canaveral Space Force Station

Loading…

Próximos Pases (próximas 24 horas)

TLE

ActualizadoSource: CelesTrak SupGP

Época: Sep 14, 2026, 21:20 UTC

1 58244C 23171Q   26257.88937500 -.00037274  00000+0 -13502-2 0  2573
2 58244  43.0008 296.8372 0001698 262.1796 287.3071 15.27592988    19

Sigue STARLINK-30854 en tiempo real con AllMySat

Download on the App Store